Tacoma Narrows, WA

11:01 AM PST on December 16, 2017 (GMT -0800)
Tacoma Narrows

Weather History for KTIW - October, 2012

Change the Weather History Date:

Sunday, October 7, 2012

  Actual Average Record
Temperature  
Mean Temperature 58 °F -  
Max Temperature 71 °F 59 °F 73 °F (2000)
Min Temperature 46 °F 47 °F 44 °F (2006)
Degree Days  
Heating Degree Days 7    
Growing Degree Days 8 (Base 50)    
Moisture  
Dew Point 40 °F    
Average Humidity 52    
Maximum Humidity 86    
Minimum Humidity 29    
Precipitation  
Precipitation 0.00 in - - ()
Sea Level Pressure  
Sea Level Pressure 30.02 in    
Wind  
Wind Speed 3 mph (NNE)    
Max Wind Speed 7 mph    
Max Gust Speed -    
Visibility 10 miles    
Events      
Averages and records for this station are not official NWS values.
T = Trace of Precipitation, MM = Missing Value Source: NWS Daily Summary

Daily Weather History Graph

Daily Weather History Graph

Search for Another Location

Airport or City:

Trip Planner

Search our weather history database for the weather conditions in past years. The results will help you decide how hot, cold, wet, or windy it might be!

Date:

Astronomy

Oct. 07, 2012 Rise Set
Actual Time 7:18 AM PDT 6:36 PM PDT
Civil Twilight 6:47 AM PDT 7:07 PM PDT
Nautical Twilight 6:12 AM PDT 7:42 PM PDT
Astronomical Twilight 5:36 AM PDT 8:18 PM PDT
Moon 11:38 PM PDT (10/7) 2:15 PM PDT (10/7)
Length of Visible Light 12h 19m
Length of Day
11h 18m
Waning Gibbous, 55% of the Moon is Illuminated
Oct 7
Waning Gibbous
Oct 8
Last Quarter
Oct 15
New
Oct 21
First Quarter
Oct 29
Full

Hourly Weather History & Observations

Time (PDT) Temp. Dew Point Humidity Pressure Visibility Wind Dir Wind Speed Gust Speed Precip Events Conditions
12:53 AM 57.0 °F 37.0 °F 47% 30.10 in 10.0 mi North 5.8 mph - N/A   Clear
1:53 AM 53.1 °F 37.0 °F 55% 30.11 in 10.0 mi NW 4.6 mph - N/A   Clear
2:53 AM 52.0 °F 37.0 °F 57% 30.09 in 10.0 mi NNW 4.6 mph - N/A   Clear
3:53 AM 54.0 °F 37.9 °F 55% 30.08 in 10.0 mi Calm Calm - N/A   Clear
4:53 AM 54.0 °F 39.0 °F 57% 30.07 in 10.0 mi Variable 3.5 mph - N/A   Clear
5:53 AM 48.9 °F 42.1 °F 77% 30.08 in 10.0 mi Calm Calm - N/A   Clear
6:53 AM 48.0 °F 41.0 °F 77% 30.08 in 10.0 mi Calm Calm - N/A   Clear
7:53 AM 46.9 °F 43.0 °F 86% 30.08 in 7.0 mi Calm Calm - N/A   Clear
8:53 AM 51.1 °F 43.0 °F 74% 30.08 in 7.0 mi Calm Calm - N/A   Clear
9:53 AM 55.9 °F 43.0 °F 62% 30.08 in 10.0 mi Calm Calm - N/A   Clear
10:53 AM 55.9 °F 44.1 °F 64% 30.07 in 9.0 mi Calm Calm - N/A   Clear
11:53 AM 62.1 °F 37.9 °F 41% 30.06 in 9.0 mi North 6.9 mph - N/A   Clear
12:53 PM 64.0 °F 41.0 °F 43% 30.04 in 10.0 mi ENE 4.6 mph - N/A   Clear
1:53 PM 68.0 °F 41.0 °F 37% 30.01 in 10.0 mi Variable 3.5 mph - N/A   Clear
2:53 PM 68.0 °F 39.0 °F 35% 29.99 in 10.0 mi ENE 5.8 mph - N/A   Clear
3:53 PM 70.0 °F 37.9 °F 31% 29.97 in 10.0 mi Variable 4.6 mph - N/A   Clear
4:53 PM 70.0 °F 36.0 °F 29% 29.95 in 10.0 mi NNE 5.8 mph - N/A   Clear
5:53 PM 68.0 °F 39.0 °F 35% 29.94 in 10.0 mi North 5.8 mph - N/A   Clear
6:53 PM 64.0 °F 39.0 °F 40% 29.94 in 9.0 mi Calm Calm - N/A   Clear
7:53 PM 61.0 °F 37.9 °F 42% 29.94 in 10.0 mi NNE 3.5 mph - N/A   Clear
8:53 PM 59.0 °F 37.9 °F 46% 29.94 in 10.0 mi Calm Calm - N/A   Clear
9:53 PM 57.0 °F 39.0 °F 51% 29.94 in 10.0 mi Calm Calm - N/A   Clear
10:53 PM 55.9 °F 39.9 °F 55% 29.94 in 10.0 mi Calm Calm - N/A   Clear
11:53 PM 54.0 °F 39.9 °F 59% 29.93 in 10.0 mi Calm Calm - N/A   Clear